Starlink 6324

operational
NORAD ID: 57353 Int'l Des: 2023-099 Owner: SPXS Country: US Constellation: starlink
LEOCIRCULAR

About Starlink 6324

Description loading...

Live Position

Loading 3D Globe...

Upcoming Passes

Altitude History

Altitude vs Time

uPlot chart will show altitude changes over time

Two-Line Element Set

1 57353U 23099AB 25312.70732537 -.00000176 00000-0 20131-5 0 9990
2 57353 43.0044 185.8443 0001245 263.9635 96.1065 15.02533722127927
Epoch: Nov 8, 2025 • Age: 41 hours

Current Status

Altitude 565.8 km
Velocity 7.58 km/s
Sub-Earth Point -27.97°S, 166.51°W
Launch Date Jul 16, 2023
Age 2.3 years
Type internet

Technical Details

Classification Payload
Mass 305.00 kg
Dry Mass 290.00 kg
Total Mass 305.00 kg
Length 0.20 m
Diameter 2.80 m
Span 9.00 m
Shape Box + pan
Manufacturer SPXS
Bus Type Starlink
Phase Status In Orbit
Owner/State SPXS/US

Large Constellations

Loading constellations...